This is the latest recevied weather packets stored in our database for station/object WD4DAN-13. If no packets are shown the sender has not sent any weather packets the latest 10 day(s).
| Time | Temp. | Humidity | Pressure | Rain* | Wind** | Luminosity | Snow |
|---|---|---|---|---|---|---|---|
| 1777585378 | 28.33° C | 59% | - | 0 mm | - | - | - |
| 1777585073 | 28.33° C | 60% | - | 0 mm | - | - | - |
| 1777584770 | 28.33° C | 58% | - | 0 mm | - | - | - |
| 1777584468 | 28.89° C | 58% | - | 0 mm | - | - | - |
| 1777584165 | 28.33° C | 58% | - | 0 mm | - | - | - |
| 1777583864 | 28.33° C | 58% | - | 0 mm | - | - | - |
| 1777583560 | 28.33° C | 57% | - | 0 mm | - | - | - |
| 1777583259 | 28.89° C | 57% | - | 0 mm | - | - | - |
| 1777582958 | 28.89° C | 57% | - | 0 mm | - | - | - |
| 1777582656 | 29.44° C | 57% | - | 0 mm | - | - | - |
| 1777582351 | 29.44° C | 55% | - | 0 mm | - | - | - |
| 1777582050 | 29.44° C | 55% | - | 0 mm | - | - | - |
| 1777581744 | 30° C | 54% | - | 0 mm | - | - | - |
| 1777581443 | 29.44° C | 53% | - | 0 mm | - | - | - |
| 1777581138 | 30° C | 52% | - | 0 mm | - | - | - |
| 1777580833 | 30° C | 53% | - | 0 mm | - | - | - |
| 1777580529 | 30° C | 53% | - | 0 mm | - | - | - |
| 1777580224 | 30° C | 53% | - | 0 mm | - | - | - |
| 1777579921 | 30.56° C | 51% | - | 0 mm | - | - | - |
| 1777579616 | 30° C | 53% | - | 0 mm | - | - | - |
| 1777579310 | 29.44° C | 53% | - | 0 mm | - | - | - |
| 1777579006 | 29.44° C | 56% | - | 0 mm | - | - | - |
| 1777578701 | 28.89° C | 56% | - | 0 mm | - | - | - |
| 1777578400 | 28.89° C | 55% | - | 0 mm | - | - | - |
| 1777578096 | 30° C | 54% | - | 0 mm | - | - | - |
* Rain latest hour (hover to see other rain measurements)
** Current wind speed in m/s (hover to see current wind gust speed)